Year,Month,Day,Hour,Minute,Value (Times are PST for windspeed in km/hr)
2008,01,03,00,00,0.50
2008,01,03,00,01,0.00
2008,01,03,00,02,0.60
2008,01,03,00,03,0.30
2008,01,03,00,04,1.50
2008,01,03,00,05,3.30
2008,01,03,00,06,4.00
2008,01,03,00,07,0.80
2008,01,03,00,08,0.60
2008,01,03,00,09,0.00
2008,01,03,00,10,0.00
2008,01,03,00,11,0.10
2008,01,03,00,12,0.00
2008,01,03,00,13,2.20
2008,01,03,01,02,0.20
2008,01,03,01,03,1.30
2008,01,03,01,04,3.60
2008,01,03,01,05,1.30
2008,01,03,01,06,3.50
2008,01,03,01,07,0.00
2008,01,03,01,08,1.20
2008,01,03,01,09,4.60
2008,01,03,01,10,8.40
2008,01,03,01,11,6.70
2008,01,03,01,12,5.40
2008,01,03,01,13,5.10
2008,01,03,01,14,4.80
2008,01,03,01,15,1.30
2008,01,03,01,16,1.10
2008,01,03,01,17,0.10
2008,01,03,01,18,0.10
2008,01,03,01,19,0.20
2008,01,03,01,20,0.10
2008,01,03,01,21,2.30
2008,01,03,01,22,0.60
2008,01,03,01,23,1.60
2008,01,03,01,24,2.00
2008,01,03,01,25,1.80
2008,01,03,01,26,5.40
2008,01,03,01,27,5.60
2008,01,03,01,28,2.60
2008,01,03,01,29,0.70
2008,01,03,01,30,1.60
2008,01,03,01,31,0.60
2008,01,03,01,32,6.30
2008,01,03,01,33,2.70
2008,01,03,01,34,2.10
2008,01,03,01,35,1.10
2008,01,03,01,36,2.30
2008,01,03,01,37,2.60
2008,01,03,01,38,4.30
2008,01,03,01,39,1.60
2008,01,03,01,40,1.40
2008,01,03,01,41,4.50
2008,01,03,01,42,1.10
2008,01,03,01,43,0.20
2008,01,03,01,44,3.00
2008,01,03,01,45,1.90
2008,01,03,01,46,3.90
2008,01,03,01,47,0.20
2008,01,03,01,48,0.00
2008,01,03,01,49,1.60
2008,01,03,01,50,0.90
2008,01,03,01,51,1.70
2008,01,03,01,52,0.80
2008,01,03,01,53,2.50
2008,01,03,01,54,3.10
2008,01,03,01,55,2.70
2008,01,03,01,56,3.60
2008,01,03,01,57,6.00
2008,01,03,01,58,5.60
2008,01,03,01,59,7.90
2008,01,03,02,00,4.00
2008,01,03,02,01,7.70
2008,01,03,02,02,6.00
2008,01,03,02,03,3.90
2008,01,03,02,04,4.40
2008,01,03,02,05,3.20
2008,01,03,02,06,4.90
2008,01,03,02,07,2.80
2008,01,03,02,08,1.50
2008,01,03,02,09,5.20
2008,01,03,02,10,2.40
2008,01,03,02,11,3.00
2008,01,03,02,12,3.70
2008,01,03,02,13,5.10
2008,01,03,02,14,2.80
2008,01,03,02,15,2.40
2008,01,03,02,16,6.70
2008,01,03,02,17,10.90
2008,01,03,02,18,4.40
2008,01,03,02,19,1.90
2008,01,03,02,20,0.70
2008,01,03,02,21,6.30
2008,01,03,02,22,4.70
2008,01,03,02,23,5.40
2008,01,03,02,24,6.80
2008,01,03,02,25,1.80
2008,01,03,02,26,6.60
2008,01,03,02,27,5.60
2008,01,03,02,28,8.30
2008,01,03,02,29,3.70
2008,01,03,02,30,6.50
2008,01,03,02,31,8.90
2008,01,03,02,32,6.90
2008,01,03,02,33,4.80
2008,01,03,02,34,1.10
2008,01,03,02,35,1.30
2008,01,03,02,36,1.40
2008,01,03,02,37,9.70
2008,01,03,02,38,6.60
2008,01,03,02,39,4.80
2008,01,03,02,40,7.20
2008,01,03,02,41,2.90
2008,01,03,02,42,3.60
2008,01,03,02,43,2.40
2008,01,03,02,44,5.20
2008,01,03,02,45,3.10
2008,01,03,02,46,8.30
2008,01,03,02,47,3.90
2008,01,03,02,48,1.00
2008,01,03,02,49,1.50
2008,01,03,02,50,3.30
2008,01,03,02,51,5.30
2008,01,03,02,52,7.10
2008,01,03,02,53,0.10
2008,01,03,02,54,2.40
2008,01,03,02,55,3.30
2008,01,03,02,56,2.90
2008,01,03,02,57,6.70
2008,01,03,02,58,7.00
2008,01,03,02,59,8.80
2008,01,03,03,00,4.80
2008,01,03,03,01,4.30
2008,01,03,03,02,9.00
2008,01,03,03,03,4.70
2008,01,03,03,04,7.40
2008,01,03,03,05,4.70
2008,01,03,03,06,4.50
2008,01,03,03,07,3.50
2008,01,03,03,08,3.40
2008,01,03,03,09,3.00
2008,01,03,03,10,7.70
2008,01,03,03,11,12.50
2008,01,03,03,12,8.50
2008,01,03,03,13,6.70
2008,01,03,03,14,4.70
2008,01,03,03,15,6.10
2008,01,03,03,16,4.70
2008,01,03,03,17,2.40
2008,01,03,03,18,13.50
2008,01,03,03,19,4.50
2008,01,03,03,20,13.30
2008,01,03,03,21,7.90
2008,01,03,03,22,5.10
2008,01,03,03,23,6.40
2008,01,03,03,24,6.10
2008,01,03,03,25,11.00
2008,01,03,03,26,7.70
2008,01,03,03,27,12.50
2008,01,03,03,28,7.40
2008,01,03,03,29,3.60
2008,01,03,03,30,3.80
2008,01,03,03,31,5.00
2008,01,03,03,32,6.10
2008,01,03,03,33,2.10
2008,01,03,03,34,8.40
2008,01,03,03,35,7.00
2008,01,03,03,36,1.10
2008,01,03,03,37,0.60
2008,01,03,03,38,5.70
2008,01,03,03,39,5.20
2008,01,03,03,40,0.90
2008,01,03,03,41,0.20
2008,01,03,03,42,4.90
2008,01,03,03,43,8.00
2008,01,03,03,44,4.80
2008,01,03,03,45,12.70
2008,01,03,03,46,3.10
2008,01,03,03,47,5.40
2008,01,03,03,48,6.70
2008,01,03,03,49,6.80
2008,01,03,03,50,3.00
2008,01,03,03,51,11.20
2008,01,03,03,52,5.50
2008,01,03,03,53,3.50
2008,01,03,03,54,6.30
2008,01,03,03,55,4.90
2008,01,03,03,56,4.30
2008,01,03,03,57,0.10
2008,01,03,03,58,1.80
2008,01,03,03,59,6.40
2008,01,03,04,00,5.80
2008,01,03,04,01,3.60
2008,01,03,04,02,6.30
2008,01,03,04,03,6.70
2008,01,03,04,04,6.10
2008,01,03,04,05,6.70
2008,01,03,04,06,9.70
2008,01,03,04,07,6.70
2008,01,03,04,08,4.90
2008,01,03,04,09,8.80
2008,01,03,04,10,9.70
2008,01,03,04,11,4.20
2008,01,03,04,12,5.00
2008,01,03,04,13,5.20
2008,01,03,04,14,4.10
2008,01,03,04,15,7.90
2008,01,03,04,16,9.60
2008,01,03,04,17,9.30
2008,01,03,04,18,13.30
2008,01,03,04,19,5.60
2008,01,03,04,20,6.40
2008,01,03,04,21,12.30
2008,01,03,04,22,9.10
2008,01,03,04,23,11.50
2008,01,03,04,24,6.30
2008,01,03,04,25,9.70
2008,01,03,04,26,7.20
2008,01,03,04,27,7.20
2008,01,03,04,28,7.80
2008,01,03,04,29,4.90
2008,01,03,04,30,7.20
2008,01,03,04,31,7.90
2008,01,03,04,32,7.70
2008,01,03,04,33,3.70
2008,01,03,04,34,7.10
2008,01,03,04,35,4.70
2008,01,03,04,36,13.10
2008,01,03,04,37,9.20
2008,01,03,04,38,11.00
2008,01,03,04,39,13.40
2008,01,03,04,40,8.20
2008,01,03,04,41,8.60
2008,01,03,04,42,6.30
2008,01,03,04,43,1.90
2008,01,03,04,44,7.70
2008,01,03,04,45,8.10
2008,01,03,04,46,15.90
2008,01,03,04,47,4.90
2008,01,03,04,48,16.70
2008,01,03,04,49,12.20
2008,01,03,04,50,14.90
2008,01,03,04,51,12.70
2008,01,03,04,52,12.10
2008,01,03,04,53,8.40
2008,01,03,04,54,7.10
2008,01,03,04,55,11.40
2008,01,03,04,56,9.40
2008,01,03,04,57,11.70
2008,01,03,04,58,7.30
2008,01,03,04,59,10.30
2008,01,03,05,00,8.60
2008,01,03,05,01,7.20
2008,01,03,05,02,9.30
2008,01,03,05,03,7.90
2008,01,03,05,04,11.90
2008,01,03,05,05,14.40
2008,01,03,05,06,5.50
2008,01,03,05,07,4.80
2008,01,03,05,08,15.60
2008,01,03,05,09,12.50
2008,01,03,05,10,10.90
2008,01,03,05,11,8.60
2008,01,03,05,12,14.30
2008,01,03,05,13,9.40
2008,01,03,05,14,9.70
2008,01,03,05,15,9.20
2008,01,03,05,16,8.10
2008,01,03,05,17,7.90
2008,01,03,05,18,10.60
2008,01,03,05,19,4.90
2008,01,03,05,20,13.70
2008,01,03,05,21,12.30
2008,01,03,05,22,4.60
2008,01,03,05,23,4.10
2008,01,03,05,24,4.90
2008,01,03,05,25,12.30
2008,01,03,05,26,8.10
2008,01,03,05,27,6.30
2008,01,03,05,28,8.50
2008,01,03,05,29,7.80
2008,01,03,05,30,8.80
2008,01,03,05,31,9.30
2008,01,03,05,32,7.40
2008,01,03,05,33,2.70
2008,01,03,05,34,8.40
2008,01,03,05,35,10.80
2008,01,03,05,36,8.50
2008,01,03,05,37,7.80
2008,01,03,05,38,9.10
2008,01,03,05,39,5.60
2008,01,03,05,40,12.00
2008,01,03,05,41,11.30
2008,01,03,05,42,9.60
2008,01,03,05,43,12.10
2008,01,03,05,44,7.30
2008,01,03,05,45,6.20
2008,01,03,05,46,8.10
2008,01,03,05,47,8.10
2008,01,03,05,48,10.90
2008,01,03,05,49,7.60
2008,01,03,05,50,8.30
2008,01,03,05,51,4.60
2008,01,03,05,52,3.90
2008,01,03,05,53,9.80
2008,01,03,05,54,4.30
2008,01,03,05,55,9.50
2008,01,03,05,56,7.40
2008,01,03,05,57,5.20
2008,01,03,05,58,8.90
2008,01,03,05,59,4.50
2008,01,03,06,00,5.50
2008,01,03,06,01,4.70
2008,01,03,06,02,8.50
2008,01,03,06,03,7.40
2008,01,03,06,04,9.70
2008,01,03,06,05,5.60
2008,01,03,06,06,4.50
2008,01,03,06,07,3.90
2008,01,03,06,08,8.80
2008,01,03,06,09,4.40
2008,01,03,06,10,4.50
2008,01,03,06,11,2.30
2008,01,03,06,12,3.40
2008,01,03,06,13,8.60
2008,01,03,06,14,9.90
2008,01,03,06,15,4.40
2008,01,03,06,16,1.20
2008,01,03,06,17,4.80
2008,01,03,06,18,11.90
2008,01,03,06,19,5.50
2008,01,03,06,20,7.90
2008,01,03,06,21,10.70
2008,01,03,06,22,5.90
2008,01,03,06,23,6.20
2008,01,03,06,24,9.70
2008,01,03,06,25,7.70
2008,01,03,06,26,8.50
2008,01,03,06,27,5.60
2008,01,03,06,28,1.00
2008,01,03,06,29,2.40
2008,01,03,06,30,10.00
2008,01,03,06,31,9.60
2008,01,03,06,32,7.50
2008,01,03,06,33,10.00
2008,01,03,06,34,3.60
2008,01,03,06,35,5.30
2008,01,03,06,36,6.40
2008,01,03,06,37,7.30
2008,01,03,06,38,8.10
2008,01,03,06,39,7.40
2008,01,03,06,40,5.70
2008,01,03,06,41,10.40
2008,01,03,06,42,9.80
2008,01,03,06,43,10.30
2008,01,03,06,44,7.50
2008,01,03,06,45,7.90
2008,01,03,06,46,11.50
2008,01,03,06,47,13.50
2008,01,03,06,48,16.30
2008,01,03,06,49,6.10
2008,01,03,06,50,14.20
2008,01,03,06,51,7.80
2008,01,03,06,52,6.30
2008,01,03,06,53,8.00
2008,01,03,06,54,11.50
2008,01,03,06,55,12.10
2008,01,03,06,56,13.00
2008,01,03,06,57,12.80
2008,01,03,06,58,11.10
2008,01,03,06,59,11.50
2008,01,03,07,00,5.70
2008,01,03,07,01,14.00
2008,01,03,07,02,7.90
2008,01,03,07,03,10.60
2008,01,03,07,04,5.80
2008,01,03,07,05,8.20
2008,01,03,07,06,4.80
2008,01,03,07,07,8.80
2008,01,03,07,08,6.10
2008,01,03,07,09,10.30
2008,01,03,07,10,1.70
2008,01,03,07,11,6.30
2008,01,03,07,12,9.40
2008,01,03,07,13,13.90
2008,01,03,07,14,5.30
2008,01,03,07,15,6.10
2008,01,03,07,16,10.50
2008,01,03,07,17,12.50
2008,01,03,07,18,5.50
2008,01,03,07,19,5.60
2008,01,03,07,20,7.40
2008,01,03,07,21,8.60
2008,01,03,07,22,14.10
2008,01,03,07,23,3.80
2008,01,03,07,24,4.40
2008,01,03,07,25,6.70
2008,01,03,07,26,4.60
2008,01,03,07,27,5.20
2008,01,03,07,28,8.40
2008,01,03,07,29,6.00
2008,01,03,07,30,10.80
2008,01,03,07,31,5.60
2008,01,03,07,32,8.60
2008,01,03,07,33,3.70
2008,01,03,07,34,5.30
2008,01,03,07,35,9.00
2008,01,03,07,36,10.10
2008,01,03,07,37,5.00
2008,01,03,07,38,5.60
2008,01,03,07,39,8.50
2008,01,03,07,40,7.40
2008,01,03,07,41,4.70
2008,01,03,07,42,15.00
2008,01,03,07,43,2.40
2008,01,03,07,44,3.10
2008,01,03,07,45,5.30
2008,01,03,07,46,9.50
2008,01,03,07,47,4.80
2008,01,03,07,48,5.70
2008,01,03,07,49,5.20
2008,01,03,07,50,4.90
2008,01,03,07,51,2.60
2008,01,03,07,52,1.80
2008,01,03,07,53,7.60
2008,01,03,07,54,8.50
2008,01,03,07,55,1.30
2008,01,03,07,56,1.30
2008,01,03,07,57,1.00
2008,01,03,07,58,3.40
2008,01,03,07,59,3.10
2008,01,03,08,00,2.40
2008,01,03,08,01,6.20
2008,01,03,08,02,4.10
2008,01,03,08,03,6.60
2008,01,03,08,04,5.70
2008,01,03,08,05,5.90
2008,01,03,08,06,7.00
2008,01,03,08,07,5.10
2008,01,03,08,08,4.00
2008,01,03,08,09,6.20
2008,01,03,08,10,10.60
2008,01,03,08,11,3.30
2008,01,03,08,12,3.90
2008,01,03,08,13,3.70
2008,01,03,08,14,5.30
2008,01,03,08,15,4.20
2008,01,03,08,16,8.00
2008,01,03,08,17,6.70
2008,01,03,08,18,9.10
2008,01,03,08,19,10.40
2008,01,03,08,20,12.10
2008,01,03,08,21,12.60
2008,01,03,08,22,10.60
2008,01,03,08,23,5.70
2008,01,03,08,24,11.20
2008,01,03,08,25,5.10
2008,01,03,08,26,6.50
2008,01,03,08,27,8.80
2008,01,03,08,28,10.60
2008,01,03,08,29,13.80
2008,01,03,08,30,8.40
2008,01,03,08,31,6.30
2008,01,03,08,32,2.90
2008,01,03,08,33,3.60
2008,01,03,08,34,7.30
2008,01,03,08,35,7.50
2008,01,03,08,36,7.20
2008,01,03,08,37,5.30
2008,01,03,08,38,13.40
2008,01,03,08,39,6.40
2008,01,03,08,40,4.30
2008,01,03,08,41,8.60
2008,01,03,08,42,7.60
2008,01,03,08,43,7.80
2008,01,03,08,44,5.90
2008,01,03,08,45,3.00
2008,01,03,08,46,5.70
2008,01,03,08,47,8.10
2008,01,03,08,48,4.90
2008,01,03,08,49,7.60
2008,01,03,08,50,5.30
2008,01,03,08,51,5.00
2008,01,03,08,52,9.60
2008,01,03,08,53,3.00
2008,01,03,08,54,6.30
2008,01,03,08,55,4.00
2008,01,03,08,56,4.30
2008,01,03,08,57,13.90
2008,01,03,08,58,6.10
2008,01,03,08,59,4.70
2008,01,03,09,00,6.30
2008,01,03,09,01,6.00
2008,01,03,09,02,13.80
2008,01,03,09,03,13.40
2008,01,03,09,04,4.80
2008,01,03,09,05,17.10
2008,01,03,09,06,12.80
2008,01,03,09,07,12.10
2008,01,03,09,08,7.20
2008,01,03,09,09,14.30
2008,01,03,09,10,11.00
2008,01,03,09,11,9.50
2008,01,03,09,12,6.80
2008,01,03,09,13,11.90
2008,01,03,09,14,1.70
2008,01,03,09,15,9.30
2008,01,03,09,16,10.20
2008,01,03,09,17,6.30
2008,01,03,09,18,5.10
2008,01,03,09,19,6.90
2008,01,03,09,20,4.70
2008,01,03,09,21,8.10
2008,01,03,09,22,8.70
2008,01,03,09,23,10.30
2008,01,03,09,24,7.60
2008,01,03,09,25,14.10
2008,01,03,09,26,4.60
2008,01,03,09,27,7.00
2008,01,03,09,28,6.80
2008,01,03,09,29,7.60
2008,01,03,09,30,12.60
2008,01,03,09,31,14.50
2008,01,03,09,32,11.20
2008,01,03,09,33,9.80
2008,01,03,09,34,8.80
2008,01,03,09,35,9.40
2008,01,03,09,36,6.80
2008,01,03,09,37,6.80
2008,01,03,09,38,11.20
2008,01,03,09,39,12.20
2008,01,03,09,40,13.40
2008,01,03,09,41,12.10
2008,01,03,09,42,9.70
2008,01,03,09,43,12.30
2008,01,03,09,44,7.60
2008,01,03,09,45,11.90
2008,01,03,09,46,14.20
2008,01,03,09,47,5.20
2008,01,03,09,48,14.00
2008,01,03,09,49,11.10
2008,01,03,09,50,11.00
2008,01,03,09,51,4.70
2008,01,03,09,52,9.50
2008,01,03,09,53,9.60
2008,01,03,09,54,4.60
2008,01,03,09,55,3.60
2008,01,03,09,56,14.20
2008,01,03,09,57,12.60
2008,01,03,09,58,4.20
2008,01,03,09,59,8.20
2008,01,03,10,00,11.70
2008,01,03,10,01,20.00
2008,01,03,10,02,8.90
2008,01,03,10,03,8.90
2008,01,03,10,04,10.80
2008,01,03,10,05,9.60
2008,01,03,10,06,9.70
2008,01,03,10,07,3.90
2008,01,03,10,08,4.30
2008,01,03,10,09,8.10
2008,01,03,10,10,18.20
2008,01,03,10,11,9.90
2008,01,03,10,12,6.10
2008,01,03,10,13,6.70
2008,01,03,10,14,8.10
2008,01,03,10,15,10.50
2008,01,03,10,16,7.70
2008,01,03,10,17,9.00
2008,01,03,10,18,17.30
2008,01,03,10,19,14.30
2008,01,03,10,20,5.80
2008,01,03,10,21,2.70
2008,01,03,10,22,3.30
2008,01,03,10,23,8.60
2008,01,03,10,24,7.30
2008,01,03,10,25,4.50
2008,01,03,10,26,8.30
2008,01,03,10,27,13.20
2008,01,03,10,28,11.90
2008,01,03,10,29,7.10
2008,01,03,10,30,9.60
2008,01,03,10,31,13.80
2008,01,03,10,32,6.00
2008,01,03,10,33,15.60
2008,01,03,10,34,15.50
2008,01,03,10,35,7.70
2008,01,03,10,36,5.90
2008,01,03,10,37,7.70
2008,01,03,10,38,4.30
2008,01,03,10,39,6.80
2008,01,03,10,40,10.60
2008,01,03,10,41,4.80
2008,01,03,10,42,9.80
2008,01,03,10,43,9.80
2008,01,03,10,44,14.40
2008,01,03,10,45,15.80
2008,01,03,10,46,9.30
2008,01,03,10,47,5.50
2008,01,03,10,48,11.80
2008,01,03,10,49,5.10
2008,01,03,10,50,8.30
2008,01,03,10,51,15.00
2008,01,03,10,52,11.50
2008,01,03,10,53,8.60
2008,01,03,10,54,3.10
2008,01,03,10,55,8.90
2008,01,03,10,56,12.50
2008,01,03,10,57,6.70
2008,01,03,10,58,10.00
2008,01,03,10,59,2.70
2008,01,03,11,00,8.00
2008,01,03,11,01,5.70
2008,01,03,11,02,9.10
2008,01,03,11,03,12.50
2008,01,03,11,04,11.30
2008,01,03,11,05,11.40
2008,01,03,11,06,13.10
2008,01,03,11,07,8.70
2008,01,03,11,08,17.30
2008,01,03,11,09,6.00
2008,01,03,11,10,12.30
2008,01,03,11,11,12.00
2008,01,03,11,12,14.70
2008,01,03,11,13,16.10
2008,01,03,11,14,6.80
2008,01,03,11,15,6.20
2008,01,03,11,16,11.00
2008,01,03,11,17,14.40
2008,01,03,11,18,12.10
2008,01,03,11,19,10.80
2008,01,03,11,20,3.80
2008,01,03,11,21,14.10
2008,01,03,11,22,9.00
2008,01,03,11,23,3.40
2008,01,03,11,24,3.90
2008,01,03,11,25,10.00
2008,01,03,11,26,6.70
2008,01,03,11,27,13.60
2008,01,03,11,28,5.40
2008,01,03,11,29,8.00
2008,01,03,11,30,4.90
2008,01,03,11,31,10.30
2008,01,03,11,32,8.40
2008,01,03,11,33,16.70
2008,01,03,11,34,18.70
2008,01,03,11,35,9.20
2008,01,03,11,36,12.50
2008,01,03,11,37,10.10
2008,01,03,11,38,12.30
2008,01,03,11,39,11.00
2008,01,03,11,40,6.10
2008,01,03,11,41,13.30
2008,01,03,11,42,7.00
2008,01,03,11,43,20.80
2008,01,03,11,44,10.60
2008,01,03,11,45,12.90
2008,01,03,11,46,8.60
2008,01,03,11,47,13.40
2008,01,03,11,48,7.40
2008,01,03,11,49,7.70
2008,01,03,11,50,19.20
2008,01,03,11,51,14.50
2008,01,03,11,52,16.30
2008,01,03,11,53,15.20
2008,01,03,11,54,9.20
2008,01,03,11,55,25.80
2008,01,03,11,56,9.20
2008,01,03,11,57,11.60
2008,01,03,11,58,20.60
2008,01,03,11,59,8.00
2008,01,03,12,00,18.00
2008,01,03,12,01,18.20
2008,01,03,12,02,11.50
2008,01,03,12,03,8.20
2008,01,03,12,04,16.70
2008,01,03,12,05,18.10
2008,01,03,12,06,8.80
2008,01,03,12,07,14.30
2008,01,03,12,08,13.60
2008,01,03,12,09,16.60
2008,01,03,12,10,17.10
2008,01,03,12,11,15.10
2008,01,03,12,12,14.20
2008,01,03,12,13,12.60
2008,01,03,12,14,12.30
2008,01,03,12,15,6.00
2008,01,03,12,16,4.60
2008,01,03,12,17,15.00
2008,01,03,12,18,8.80
2008,01,03,12,19,9.60
2008,01,03,12,20,16.80
2008,01,03,12,21,11.90
2008,01,03,12,22,12.80
2008,01,03,12,23,16.70
2008,01,03,12,24,14.20
2008,01,03,12,25,18.70
2008,01,03,12,26,11.00
2008,01,03,12,27,9.40
2008,01,03,12,28,10.90
2008,01,03,12,29,17.20
2008,01,03,12,30,17.80
2008,01,03,12,31,9.90
2008,01,03,12,32,12.60
2008,01,03,12,33,11.40
2008,01,03,12,34,5.20
2008,01,03,12,35,10.10
2008,01,03,12,36,7.40
2008,01,03,12,37,8.00
2008,01,03,12,38,7.50
2008,01,03,12,39,16.70
2008,01,03,12,40,9.90
2008,01,03,12,41,10.30
2008,01,03,12,42,21.40
2008,01,03,12,43,20.30
2008,01,03,12,44,16.80
2008,01,03,12,45,13.00
2008,01,03,12,46,13.40
2008,01,03,12,47,17.60
2008,01,03,12,48,12.80
2008,01,03,12,49,10.40
2008,01,03,12,50,10.30
2008,01,03,12,51,12.40
2008,01,03,12,52,19.50
2008,01,03,12,53,8.10
2008,01,03,12,54,12.20
2008,01,03,12,55,11.70
2008,01,03,12,56,14.10
2008,01,03,12,57,19.20
2008,01,03,12,58,16.10
2008,01,03,12,59,13.50
2008,01,03,13,00,25.40
2008,01,03,13,01,17.30
2008,01,03,13,02,22.10
2008,01,03,13,03,14.00
2008,01,03,13,04,14.30
2008,01,03,13,05,10.40
2008,01,03,13,06,17.50
2008,01,03,13,07,19.20
2008,01,03,13,08,15.80
2008,01,03,13,09,20.30
2008,01,03,13,10,15.00
2008,01,03,13,11,12.90
2008,01,03,13,12,7.40
2008,01,03,13,13,12.50
2008,01,03,13,14,11.60
2008,01,03,13,15,18.80
2008,01,03,13,16,10.20
2008,01,03,13,17,19.90
2008,01,03,13,18,14.70
2008,01,03,13,19,19.80
2008,01,03,13,20,14.60
2008,01,03,13,21,17.20
2008,01,03,13,22,17.00
2008,01,03,13,23,16.30
2008,01,03,13,24,12.10
2008,01,03,13,25,15.90
2008,01,03,13,26,10.70
2008,01,03,13,27,20.00
2008,01,03,13,28,13.00
2008,01,03,13,29,8.10
2008,01,03,13,30,6.70
2008,01,03,13,31,9.70
2008,01,03,13,32,16.10
2008,01,03,13,33,15.90
2008,01,03,13,34,14.60
2008,01,03,13,35,6.10
2008,01,03,13,36,14.50
2008,01,03,13,37,18.00
2008,01,03,13,38,16.80
2008,01,03,13,39,8.40
2008,01,03,13,40,15.00
2008,01,03,13,41,11.40
2008,01,03,13,42,18.10
2008,01,03,13,43,21.80
2008,01,03,13,44,11.40
2008,01,03,13,45,11.50
2008,01,03,13,46,5.90
2008,01,03,13,47,20.90
2008,01,03,13,48,14.60
2008,01,03,13,49,12.90
2008,01,03,13,50,11.30
2008,01,03,13,51,10.50
2008,01,03,13,52,16.60
2008,01,03,13,53,20.90
2008,01,03,13,54,11.80
2008,01,03,13,55,14.30
2008,01,03,13,56,16.60
2008,01,03,13,57,15.50
2008,01,03,13,58,12.10
2008,01,03,13,59,16.20
2008,01,03,14,00,13.50
2008,01,03,14,01,10.40
2008,01,03,14,02,16.20
2008,01,03,14,03,22.00
2008,01,03,14,04,18.80
2008,01,03,14,05,12.00
2008,01,03,14,06,22.10
2008,01,03,14,07,16.60
2008,01,03,14,08,16.20
2008,01,03,14,09,15.20
2008,01,03,14,10,15.40
2008,01,03,14,11,23.90
2008,01,03,14,12,24.40
2008,01,03,14,13,16.30
2008,01,03,14,14,26.20
2008,01,03,14,15,20.60
2008,01,03,14,16,16.30
2008,01,03,14,17,20.50
2008,01,03,14,18,19.90
2008,01,03,14,19,19.60
2008,01,03,14,20,23.00
2008,01,03,14,21,15.70
2008,01,03,14,22,21.20
2008,01,03,14,23,20.70
2008,01,03,14,24,19.90
2008,01,03,14,25,16.30
2008,01,03,14,26,26.00
2008,01,03,14,27,20.90
2008,01,03,14,28,17.40
2008,01,03,14,29,17.70
2008,01,03,14,30,18.80
2008,01,03,14,31,15.50
2008,01,03,14,32,22.00
2008,01,03,14,33,11.10
2008,01,03,14,34,20.80
2008,01,03,14,35,10.30
2008,01,03,14,36,23.80
2008,01,03,14,37,10.50
2008,01,03,14,38,20.90
2008,01,03,14,39,23.50
2008,01,03,14,40,19.00
2008,01,03,14,41,12.70
2008,01,03,14,42,20.50
2008,01,03,14,43,23.90
2008,01,03,14,44,26.10
2008,01,03,14,45,23.30
2008,01,03,14,46,16.90
2008,01,03,14,47,15.10
2008,01,03,14,48,15.80
2008,01,03,14,49,33.20
2008,01,03,14,50,26.20
2008,01,03,14,51,19.40
2008,01,03,14,52,19.20
2008,01,03,14,53,22.00
2008,01,03,14,54,26.70
2008,01,03,14,55,22.20
2008,01,03,14,56,20.80
2008,01,03,14,57,19.90
2008,01,03,14,58,13.80
2008,01,03,14,59,17.80
2008,01,03,15,00,15.00
2008,01,03,15,01,21.50
2008,01,03,15,02,10.50
2008,01,03,15,03,26.70
2008,01,03,15,04,18.50
2008,01,03,15,05,8.30
2008,01,03,15,06,18.70
2008,01,03,15,07,24.20
2008,01,03,15,08,19.90
2008,01,03,15,09,18.00
2008,01,03,15,10,17.00
2008,01,03,15,11,11.90
2008,01,03,15,12,16.90
2008,01,03,15,13,24.40
2008,01,03,15,14,20.20
2008,01,03,15,15,13.80
2008,01,03,15,16,11.50
2008,01,03,15,17,8.60
2008,01,03,15,18,13.00
2008,01,03,15,19,16.50
2008,01,03,15,20,8.70
2008,01,03,15,21,19.40
2008,01,03,15,22,20.40
2008,01,03,15,23,16.70
2008,01,03,15,24,18.40
2008,01,03,15,25,13.20
2008,01,03,15,26,18.50
2008,01,03,15,27,18.40
2008,01,03,15,28,11.90
2008,01,03,15,29,30.90
2008,01,03,15,30,21.00
2008,01,03,15,31,17.80
2008,01,03,15,32,18.70
2008,01,03,15,33,9.30
2008,01,03,15,34,15.80
2008,01,03,15,35,12.50
2008,01,03,15,36,17.40
2008,01,03,15,37,12.40
2008,01,03,15,38,17.20
2008,01,03,15,39,12.30
2008,01,03,15,40,11.70
2008,01,03,15,41,20.00
2008,01,03,15,42,17.30
2008,01,03,15,43,17.20
2008,01,03,15,44,13.70
2008,01,03,15,45,13.70
2008,01,03,15,46,21.30
2008,01,03,15,47,17.10
2008,01,03,15,48,9.60
2008,01,03,15,49,22.00
2008,01,03,15,50,24.60
2008,01,03,15,51,19.70
2008,01,03,15,52,18.00
2008,01,03,15,53,19.80
2008,01,03,15,54,15.10
2008,01,03,15,55,15.60
2008,01,03,15,56,15.80
2008,01,03,15,57,16.80
2008,01,03,15,58,11.40
2008,01,03,15,59,25.20
2008,01,03,16,00,16.60
2008,01,03,16,01,17.30
2008,01,03,16,02,17.80
2008,01,03,16,03,20.00
2008,01,03,16,04,24.40
2008,01,03,16,05,20.30
2008,01,03,16,06,17.80
2008,01,03,16,07,8.40
2008,01,03,16,08,12.40
2008,01,03,16,09,23.60
2008,01,03,16,10,17.20
2008,01,03,16,11,17.40
2008,01,03,16,12,23.40
2008,01,03,16,13,11.70
2008,01,03,16,14,20.30
2008,01,03,16,15,13.20
2008,01,03,16,16,12.50
2008,01,03,16,17,11.20
2008,01,03,16,18,9.10
2008,01,03,16,19,16.30
2008,01,03,16,20,15.00
2008,01,03,16,21,22.80
2008,01,03,16,22,25.40
2008,01,03,16,23,9.30
2008,01,03,16,24,5.10
2008,01,03,16,25,12.50
2008,01,03,16,26,13.20
2008,01,03,16,27,16.40
2008,01,03,16,28,9.70
2008,01,03,16,29,12.10
2008,01,03,16,30,13.80
2008,01,03,16,31,17.50
2008,01,03,16,32,14.10
2008,01,03,16,33,12.30
2008,01,03,16,34,10.00
2008,01,03,16,35,16.00
2008,01,03,16,36,20.00
2008,01,03,16,37,15.60
2008,01,03,16,38,7.50
2008,01,03,16,39,9.80
2008,01,03,16,40,7.60
2008,01,03,16,41,21.00
2008,01,03,16,42,14.90
2008,01,03,16,43,13.20
2008,01,03,16,44,11.10
2008,01,03,16,45,18.20
2008,01,03,16,46,16.70
2008,01,03,16,47,14.60
2008,01,03,16,48,12.60
2008,01,03,16,49,12.00
2008,01,03,16,50,1.40
2008,01,03,16,51,0.60
2008,01,03,16,52,15.10
2008,01,03,16,53,21.10
2008,01,03,16,54,15.90
2008,01,03,16,55,16.40
2008,01,03,16,56,9.30
2008,01,03,16,57,17.70
2008,01,03,16,58,7.50
2008,01,03,16,59,18.00
2008,01,03,17,00,9.10
2008,01,03,17,01,15.80
2008,01,03,17,02,13.70
2008,01,03,17,03,15.70
2008,01,03,17,04,9.80
2008,01,03,17,05,6.60
2008,01,03,17,06,6.80
2008,01,03,17,07,8.80
2008,01,03,17,08,16.00
2008,01,03,17,09,12.30
2008,01,03,17,10,5.90
2008,01,03,17,11,10.10
2008,01,03,17,12,15.10
2008,01,03,17,13,12.90
2008,01,03,17,14,13.00
2008,01,03,17,15,21.60
2008,01,03,17,16,9.70
2008,01,03,17,17,16.40
2008,01,03,17,18,18.50
2008,01,03,17,19,7.10
2008,01,03,17,20,20.90
2008,01,03,17,21,16.30
2008,01,03,17,22,10.50
2008,01,03,17,23,6.00
2008,01,03,17,24,13.60
2008,01,03,17,25,7.40
2008,01,03,17,26,13.10
2008,01,03,17,27,8.60
2008,01,03,17,28,18.00
2008,01,03,17,29,8.10
2008,01,03,17,30,6.20
2008,01,03,17,31,8.60
2008,01,03,17,32,5.20
2008,01,03,17,33,6.60
2008,01,03,17,34,16.30
2008,01,03,17,35,5.20
2008,01,03,17,36,7.20
2008,01,03,17,37,7.00
2008,01,03,17,38,11.20
2008,01,03,17,39,10.80
2008,01,03,17,40,9.00
2008,01,03,17,41,10.60
2008,01,03,17,42,14.40
2008,01,03,17,43,8.80
2008,01,03,17,44,4.50
2008,01,03,17,45,11.00
2008,01,03,17,46,10.00
2008,01,03,17,47,8.90
2008,01,03,17,48,9.30
2008,01,03,17,49,3.70
2008,01,03,17,50,4.90
2008,01,03,17,51,12.70
2008,01,03,17,52,4.60
2008,01,03,17,53,11.90
2008,01,03,17,54,9.00
2008,01,03,17,55,4.30
2008,01,03,17,56,6.30
2008,01,03,17,57,13.60
2008,01,03,17,58,7.00
2008,01,03,17,59,7.70
2008,01,03,18,00,8.00
2008,01,03,18,01,10.70
2008,01,03,18,02,8.20
2008,01,03,18,03,14.30
2008,01,03,18,04,9.30
2008,01,03,18,05,6.70
2008,01,03,18,06,6.80
2008,01,03,18,07,6.20
2008,01,03,18,08,8.10
2008,01,03,18,09,10.40
2008,01,03,18,10,5.80
2008,01,03,18,11,5.50
2008,01,03,18,12,5.30
2008,01,03,18,13,10.10
2008,01,03,18,14,5.40
2008,01,03,18,15,8.20
2008,01,03,18,16,8.00
2008,01,03,18,17,11.50
2008,01,03,18,18,4.00
2008,01,03,18,19,5.00
2008,01,03,18,20,7.70
2008,01,03,18,21,6.90
2008,01,03,18,22,9.80
2008,01,03,18,23,11.10
2008,01,03,18,24,6.50
2008,01,03,18,25,6.70
2008,01,03,18,26,10.40
2008,01,03,18,27,3.70
2008,01,03,18,28,6.60
2008,01,03,18,29,12.40
2008,01,03,18,30,10.40
2008,01,03,18,31,7.50
2008,01,03,18,32,10.50
2008,01,03,18,33,7.10